sat.trackr.live / text

‹ back to catalog

STARLINK-35281

NORAD 65824 · 2025-221B

PAYLOAD ACTIVE UNKNOWN

§ Identity

Operator
Country
US
Launch date
2025-09-29
Launch site
AFWTR
Launch vehicle
Mass (kg)
RCS (m²)

Purposes: comms

External: N2YO · Heavens-Above · Gunter

§ Orbital elements

Epoch: 2026-09-20T11:15:35.648640Z

Period
93.85 min
Inclination
53.1579°
Eccentricity
0.0001253
Mean motion
15.34396004 rev/d
Perigee alt
461.9 km
Apogee alt
463.6 km
Semi-major
6,840.9 km
B*
2.4174e-4
RAAN
261.5894°
Arg perigee
87.7828°
Mean anomaly
272.3318°
Rev number
5,593

§ Raw data

STARLINK-352811 65824U 25221B   26263.46916260  .00007799  00000+0  24174-3 0  99922 65824  53.1579 261.5894 0001253  87.7828 272.3318 15.34396004 55936

JSON: /api/v1/satellites/65824 · /tle

For live sub-satellite position, see the globe view (requires WebGL).

§ Visibility from observer

Set your observer location to see the next 7 days of passes ≥ 10°. The values pass through the URL so the page stays shareable.

No JS? Fill the form by hand. The geolocation button needs JavaScript.